Total_Precipitation_Accumulation
1.22 1.31 1.27 1.24 1.24 1.22 1.14 1.04 0.96 0.84 0.70 0.46 0.33 0.27 0.28 0.27 0.30 0.29 0.24 0.18 0.14 0.13 0.12 0.09 0.06 0.06 0.07 0.08 0.09 0.11 0.11 0.10 0.07 0.05 0.04 0.05 0.06 0.07
1.05 1.16 1.21 1.25 1.33 1.29 1.23 1.17 1.02 0.89 0.80 0.60 0.44 0.33 0.34 0.30 0.31 0.26 0.26 0.24 0.17 0.13 0.11 0.10 0.08 0.07 0.06 0.07 0.06 0.05 0.04 0.04 0.03 0.02 0.03 0.03 0.03 0.03
0.95 0.95 1.05 1.17 1.22 1.25 1.24 1.19 1.14 1.02 0.84 0.72 0.50 0.39 0.40 0.38 0.39 0.31 0.27 0.25 0.23 0.20 0.16 0.14 0.11 0.10 0.07 0.06 0.05 0.04 0.03 0.02 0.03 0.03 0.03 0.03 0.03 0.04
0.75 0.77 0.85 0.90 0.95 1.05 1.15 1.11 1.10 1.07 0.94 0.83 0.66 0.51 0.48 0.44 0.48 0.45 0.39 0.36 0.36 0.40 0.39 0.28 0.20 0.16 0.13 0.09 0.06 0.04 0.02 0.02 0.02 0.03 0.04 0.04 0.05 0.06
0.66 0.66 0.67 0.75 0.84 0.85 0.93 1.02 1.04 1.00 0.94 0.83 0.81 0.73 0.59 0.49 0.48 0.47 0.48 0.54 0.51 0.50 0.56 0.48 0.35 0.26 0.19 0.15 0.10 0.06 0.04 0.03 0.03 0.03 0.03 0.03 0.04 0.05
0.61 0.62 0.60 0.63 0.68 0.73 0.76 0.85 0.94 0.96 0.91 0.82 0.77 0.75 0.67 0.59 0.51 0.51 0.60 0.69 0.68 0.58 0.58 0.57 0.51 0.40 0.32 0.26 0.19 0.13 0.10 0.07 0.06 0.05 0.05 0.05 0.06 0.06
0.54 0.55 0.55 0.51 0.51 0.58 0.57 0.67 0.76 0.85 0.88 0.88 0.83 0.75 0.66 0.59 0.54 0.54 0.59 0.72 0.75 0.73 0.67 0.59 0.52 0.45 0.39 0.32 0.26 0.22 0.20 0.17 0.13 0.11 0.10 0.10 0.09 0.08
0.49 0.51 0.52 0.48 0.45 0.41 0.39 0.42 0.53 0.61 0.68 0.76 0.82 0.77 0.72 0.66 0.64 0.62 0.59 0.61 0.71 0.74 0.64 0.65 0.57 0.49 0.43 0.35 0.36 0.35 0.28 0.21 0.17 0.14 0.12 0.11 0.10 0.10
0.39 0.47 0.55 0.56 0.57 0.56 0.46 0.42 0.42 0.44 0.46 0.53 0.62 0.66 0.66 0.66 0.61 0.62 0.64 0.67 0.60 0.58 0.50 0.53 0.52 0.43 0.35 0.30 0.29 0.27 0.26 0.24 0.21 0.18 0.15 0.14 0.13 0.13
0.34 0.41 0.55 0.61 0.65 0.66 0.57 0.57 0.51 0.43 0.39 0.38 0.48 0.52 0.54 0.60 0.65 0.71 0.68 0.59 0.53 0.45 0.36 0.34 0.34 0.29 0.25 0.23 0.21 0.17 0.16 0.16 0.15 0.15 0.15 0.15 0.15 0.15
0.32 0.38 0.54 0.62 0.71 0.72 0.65 0.67 0.60 0.44 0.39 0.41 0.39 0.39 0.43 0.51 0.56 0.61 0.61 0.53 0.48 0.45 0.31 0.23 0.23 0.21 0.19 0.17 0.14 0.11 0.09 0.07 0.07 0.07 0.07 0.07 0.08 0.09
0.34 0.36 0.57 0.63 0.64 0.61 0.58 0.73 0.73 0.56 0.39 0.37 0.39 0.44 0.44 0.52 0.66 0.74 0.80 0.71 0.54 0.48 0.36 0.28 0.26 0.24 0.25 0.21 0.14 0.08 0.05 0.04 0.03 0.03 0.03 0.04 0.05 0.05
0.22 0.26 0.29 0.44 0.46 0.46 0.54 0.63 0.70 0.53 0.40 0.47 0.56 0.55 0.53 0.52 0.57 0.66 0.77 0.83 0.71 0.57 0.48 0.40 0.36 0.34 0.28 0.23 0.17 0.10 0.05 0.04 0.03 0.03 0.03 0.04 0.04 0.04
0.14 0.18 0.21 0.33 0.38 0.40 0.45 0.48 0.50 0.49 0.46 0.53 0.51 0.42 0.44 0.43 0.38 0.40 0.48 0.56 0.51 0.44 0.36 0.30 0.29 0.28 0.23 0.17 0.13 0.10 0.07 0.04 0.03 0.03 0.03 0.03 0.03 0.03
0.09 0.16 0.20 0.28 0.29 0.31 0.38 0.39 0.42 0.53 0.55 0.49 0.42 0.33 0.30 0.28 0.26 0.30 0.37 0.39 0.35 0.26 0.19 0.15 0.15 0.14 0.10 0.08 0.06 0.06 0.05 0.04 0.03 0.03 0.03 0.03 0.03 0.03
0.10 0.13 0.18 0.25 0.27 0.27 0.32 0.38 0.45 0.51 0.58 0.45 0.30 0.24 0.21 0.21 0.22 0.24 0.28 0.26 0.28 0.24 0.17 0.13 0.12 0.10 0.08 0.06 0.06 0.05 0.05 0.05 0.06 0.07 0.06 0.05 0.04 0.04
0.11 0.19 0.28 0.37 0.37 0.37 0.42 0.46 0.48 0.42 0.42 0.36 0.30 0.28 0.26 0.24 0.21 0.19 0.18 0.18 0.19 0.18 0.15 0.15 0.12 0.09 0.07 0.06 0.06 0.07 0.07 0.06 0.08 0.11 0.10 0.09 0.09 0.11
0.18 0.22 0.34 0.46 0.48 0.50 0.50 0.51 0.51 0.47 0.43 0.36 0.32 0.28 0.23 0.21 0.19 0.17 0.15 0.18 0.19 0.14 0.09 0.06 0.05 0.04 0.04 0.05 0.05 0.06 0.07 0.07 0.08 0.08 0.07 0.05 0.05 0.09
0.19 0.24 0.41 0.47 0.42 0.42 0.46 0.46 0.40 0.31 0.27 0.24 0.18 0.13 0.10 0.09 0.09 0.09 0.10 0.11 0.09 0.07 0.05 0.03 0.04 0.04 0.04 0.05 0.07 0.03 0.05 0.08 0.07 0.05 0.05 0.04 0.02 0.03
0.21 0.33 0.47 0.50 0.42 0.34 0.28 0.22 0.17 0.12 0.10 0.09 0.07 0.04 0.04 0.03 0.03 0.03 0.04 0.03 0.02 0.03 0.05 0.05 0.05 0.05 0.06 0.07 0.08 0.08 0.04 0.05 0.05 0.04 0.03 0.03 0.02 0.02
0.16 0.25 0.33 0.38 0.32 0.18 0.09 0.06 0.04 0.04 0.04 0.03 0.03 0.03 0.02 0.02 0.02 0.02 0.02 0.02 0.02 0.03 0.04 0.05 0.03 0.02 0.02 0.05 0.07 0.07 0.06 0.04 0.03 0.02 0.01 0.01 0.01 0.01
0.05 0.07 0.09 0.09 0.06 0.03 0.02 0.01 0.01 0.01 0.01 0.01 0.01 0.01 0.01 0.01 0.02 0.02 0.02 0.03 0.03 0.03 0.03 0.03 0.02 0.02 0.04 0.06 0.06 0.05 0.04 0.03 0.03 0.04 0.04 0.03 0.03 0.02
0.01 0.01 0.01 0.01 0.00 0.00 0.00 0.00 0.00 0.01 0.01 0.01 0.01 0.01 0.01 0.01 0.02 0.02 0.02 0.02 0.02 0.01 0.01 0.02 0.02 0.02 0.03 0.04 0.04 0.05 0.04 0.04 0.03 0.04 0.04 0.05 0.06 0.05